Terminal Aerodrome Forecast
Issued by NWS Knoxville/Tri Cities, TN

Home | Current Version | Previous Version | Text Only | Print | Product List | Glossary On
Versions: 1 2 3 4 5 6 7 8 9 10 11 12 13 14 15 16 17 18 19 20 21 22 23 24 25 26 27 28 29
000
FTUS44 KMRX 221623 AAA
TAFCHA
TAF AMD
KCHA 221623Z 2216/2312 14005KT P6SM OVC015
     FM222200 16005KT 4SM -SHRA BR VCTS OVC010CB=

USA.gov is the U.S. government's official web portal to all federal, state and local government web resources and services.